Zurück zum Katalog

CZ-6A DEB

AktivPO
NORAD 61133·DEBRIS·🇨🇳 China

Gestartet Aug 6, 2024 von Taiyuan Satellite Launch Center

Loading…

Nächste Überflüge (nächste 24 Stunden)

TLE

AktuellSource: Space-Track

Epoche: Sep 14, 2026, 17:01 UTC

1 61133U 24140QB  26257.70968114  .00001475  00000-0  31450-3 0  9996
2 61133  88.9469 254.7840 0074098 297.1828  62.1843 14.56729855109449

Verfolge CZ-6A DEB in Echtzeit mit AllMySat

Download on the App Store